[[{"header":{"parameterUnit":"m.s-1","parameterCategory":1,"la1":30.2991,"la2":30.254,"lo1":-89.0895,"lo2":-89.0444,"dy":0.0017,"dx":0.0017,"nx":28,"ny":28,"refTime":"2025-03-15T09:00:00:Z","depth":0,"parameterNumber":2,"parameterNumberName":"U-component_of_WINDS"},"data":[0,0,0,0,0,0,0,0,0,0,0,0,0,0,0,0,0,0,0,0,0,0,0,0,0,0,0,0,0,0,0,0,0,0,0,0,0,0,0,0,0,0,0,0,0,0,0,0,0,0,0,0,0,0,0,0,0,0,2.5342,2.5343,0,2.5409,2.541,2.5411,2.5379,2.5377,2.5376,2.5374,2.545,2.5454,2.5457,0,0,0,0,0,0,0,0,0,0,0,0,0,2.5193,2.5196,2.5342,2.5343,2.5343,2.5409,2.541,2.5411,2.5379,2.5377,2.5375,2.5373,2.5449,2.5453,2.5458,0,0,0,0,0,0,0,0,0,0,0,0,0,2.5259,2.5197,2.5342,2.5335,2.5335,2.5409,2.541,2.5411,2.538,2.5377,2.5375,2.5372,2.5447,2.5453,2.5458,2.5544,0,0,2.5475,2.5477,0,0,0,0,0,0,0,0,2.5255,2.5265,2.5336,2.5336,2.5336,2.5383,2.5386,2.5456,2.5381,2.5363,2.5374,2.5371,2.543,2.5437,2.5456,2.5547,2.5551,2.5475,2.5479,2.5481,2.5482,0,0,0,0,0,0,0,2.5251,2.5262,2.5369,2.5337,2.5337,2.5332,2.5338,2.5399,2.5411,2.5365,2.5362,2.537,2.543,2.545,2.5457,2.5552,2.5475,2.548,2.5483,2.5485,2.5719,2.5721,0,0,0,0,0,0,2.5246,2.5258,2.5367,2.5371,2.5288,2.5337,2.5344,2.5371,2.541,2.5413,2.5373,2.5369,2.5442,2.5451,2.546,2.5563,2.5481,2.5486,2.5489,2.5716,2.5719,2.5722,0,0,0,0,0,0,2.5242,2.5255,2.5364,2.5314,2.5327,2.5342,2.5372,2.5373,2.5394,2.5416,2.5419,2.5391,2.5441,2.5452,2.5523,2.5565,2.5488,2.5493,2.5712,2.5717,2.5721,2.577,0,0,0,0,0,0,2.5238,2.5255,2.5285,2.5315,2.533,2.5424,2.5375,2.5377,2.5402,2.5398,2.5434,2.5437,2.5439,2.5515,2.5528,2.5571,2.5498,2.5709,2.5714,2.5719,2.5765,2.5776,2.5785,0,0,0,0,0,2.5233,2.5298,2.5287,2.53,2.5368,2.5426,2.5435,2.5435,2.5406,2.5438,2.5453,2.5436,2.5558,2.5522,2.5537,2.5583,2.5706,2.5713,2.5719,2.576,2.5773,2.5785,0,0,0,0,0,0,2.5275,2.5301,2.529,2.5365,2.5393,2.5421,2.5461,2.5448,2.5487,2.5482,2.5482,2.549,2.5564,2.558,2.554,2.5668,2.5628,2.5638,2.5654,2.5667,2.5677,2.5671,2.5502,0,0,0,0,0,2.5293,2.5335,2.5357,2.5422,2.5436,2.5446,2.5472,2.5469,2.5499,2.5511,2.5531,2.5563,2.5609,2.5639,2.5682,2.5767,2.5775,2.5806,2.5816,2.5824,2.5833,2.588,2.5894,2.5744,2.5744,2.5744,0,0,2.5331,2.535,2.5377,2.543,2.5452,2.5498,2.5457,2.5507,2.5542,2.552,2.5587,2.5603,2.5639,2.5717,2.5753,2.5734,2.5876,2.5832,2.5839,2.5843,2.5888,2.5903,2.5915,2.5749,2.5748,2.5747,0,0,2.5422,2.5441,2.5497,2.5519,2.5552,2.5558,2.5572,2.5601,2.561,2.5678,2.5662,2.5705,2.5784,2.581,2.5834,2.5937,2.5924,2.5952,2.6004,2.6051,2.6062,2.6073,2.6111,2.6124,2.596,2.596,2.596,0,2.5466,2.5532,2.5528,2.558,2.5605,2.5584,2.5643,2.5666,2.5712,2.573,2.5708,2.5806,2.5829,2.5914,2.5939,2.5959,2.5976,2.5947,2.606,2.6071,2.6081,2.6117,2.6131,2.5963,2.5963,2.5963,2.5962,0,2.5584,2.5631,2.5673,2.5715,2.5745,2.58,2.5807,2.5838,2.5833,2.5843,2.5913,2.594,2.5988,2.6009,2.6005,2.6094,2.6081,2.6059,2.6019,2.6098,2.6132,2.6146,2.5968,2.5967,2.5966,2.5965,0,0,2.5703,2.5743,2.5759,2.5778,2.5813,2.5851,2.5906,2.5952,2.5979,2.6012,2.606,2.6127,2.6107,2.6135,2.6134,2.6175,2.6256,2.6149,2.615,2.6168,2.6357,2.6373,2.6389,2.6248,2.625,2.6252,2.6354,0,2.5798,2.5891,2.589,2.5978,2.6022,2.6005,2.6053,2.6082,2.6093,2.6134,2.6148,2.6195,2.6166,2.6182,2.6221,2.6238,2.6294,2.6231,2.6294,2.6296,2.6285,2.6406,2.6423,2.6517,2.6367,2.637,2.6371,0,2.592,2.5955,2.6047,2.6076,2.6095,2.6138,2.618,2.6219,2.6252,2.6258,2.6288,2.6282,2.6341,2.6299,2.6381,2.6338,2.6364,2.6376,2.638,2.6386,2.6338,2.6416,2.6547,2.6562,2.6392,2.639,2.6389,0,2.5998,2.6069,2.6133,2.615,2.6186,2.6217,2.6234,2.6264,2.6292,2.633,2.6348,2.6394,2.6419,2.6455,2.6463,2.6431,2.6546,2.6504,2.6553,2.6553,2.6578,2.6576,2.6716,2.6595,2.6595,2.6594,2.6594,0,2.6104,2.6161,2.6168,2.6208,2.6272,2.6272,2.6336,2.6351,2.6378,2.6422,2.6411,2.6453,2.6459,2.6504,2.651,2.6578,2.659,2.6597,2.6598,2.6598,2.6597,2.6615,2.6609,2.6598,2.6597,2.6597,2.6596,0,2.6201,2.6208,2.6277,2.6305,2.6314,2.636,2.6386,2.6425,2.6435,2.6491,2.6504,2.6522,2.6573,2.6584,2.6646,2.665,2.6731,2.6726,2.6719,2.6719,2.6768,2.6763,2.6924,2.6946,2.681,2.6811,2.6812,0,2.6268,2.6311,2.6343,2.6371,2.6389,2.6434,2.6462,2.6464,2.6495,2.6536,2.6571,2.6621,2.6661,2.6745,2.6765,2.6813,2.6808,2.6862,2.6816,2.6815,2.681,2.6807,2.6812,2.687,2.6872,2.6873,2.6874,0,2.6385,2.6387,2.6426,2.6468,2.6501,2.6535,2.6567,2.6591,2.6598,2.6633,2.6685,2.6716,2.6779,2.683,2.6878,2.6898,2.6888,2.6888,2.6902,2.6903,2.6897,2.6901,2.6743,2.6884,2.6883,2.6883,2.6882,2.6882,2.647,2.6507,2.6536,2.6581,2.6605,2.6636,2.6674,2.6689,2.6731,2.6781,2.6781,2.6838,2.6872,2.6935,2.6959,2.7005,2.6989,2.7009,2.7014,2.7019,2.7024,2.689,2.7014,2.7014,2.7013,2.7013,2.7013,0,2.6587,2.6604,2.6646,2.669,2.6726,2.6712,2.6747,2.6779,2.6829,2.686,2.69,2.6961,2.701,2.7034,2.7083,2.7116,2.7113,2.7129,2.7127,2.7132,2.7035,2.7018,2.7131,2.7131,2.7131,2.7131,2.7131,2.7131,2.6652,2.6715,2.6721,2.6797,2.6815,2.6869,2.6891,2.692,2.6945,2.7012,2.7053,2.7067,2.7097,2.7148,2.7194,2.72,2.7219,2.7238,2.7241,2.7151,2.7139,2.7127,2.7111,2.7242,2.7242,2.7334,2.7335,2.7336]},{"header":{"parameterUnit":"m.s-1","parameterCategory":1,"la1":30.2991,"la2":30.254,"lo1":-89.0895,"lo2":-89.0444,"dy":0.0017,"dx":0.0017,"nx":28,"ny":28,"refTime":"2025-03-15T09:00:00:Z","depth":0,"parameterNumber":3,"parameterNumberName":"V-component_of_WINDS"},"data":[0,0,0,0,0,0,0,0,0,0,0,0,0,0,0,0,0,0,0,0,0,0,0,0,0,0,0,0,0,0,0,0,0,0,0,0,0,0,0,0,0,0,0,0,0,0,0,0,0,0,0,0,0,0,0,0,0,0,6.8091,6.8094,0,6.843,6.8434,6.8438,6.8522,6.8519,6.8517,6.8515,6.8872,6.8884,6.8895,0,0,0,0,0,0,0,0,0,0,0,0,0,6.7524,6.7534,6.809,6.8095,6.8099,6.8429,6.8434,6.8439,6.8522,6.8519,6.8517,6.8514,6.8869,6.8882,6.8896,0,0,0,0,0,0,0,0,0,0,0,0,0,6.7807,6.7537,6.809,6.818,6.8192,6.8428,6.8434,6.844,6.8523,6.8519,6.8516,6.8513,6.8864,6.8881,6.8898,6.9072,0,0,6.8951,6.8959,0,0,0,0,0,0,0,0,6.7791,6.7828,6.8163,6.8174,6.8188,6.843,6.8365,6.8652,6.8524,6.8397,6.8515,6.8511,6.8728,6.8757,6.8828,6.9089,6.9104,6.8953,6.8963,6.8971,6.8976,0,0,0,0,0,0,0,6.7771,6.7814,6.8225,6.8167,6.8183,6.8207,6.8243,6.842,6.8578,6.8408,6.8415,6.8453,6.8735,6.8811,6.8837,6.9109,6.8952,6.8968,6.8978,6.8985,6.9532,6.9536,0,0,0,0,0,0,6.7735,6.7797,6.8214,6.8235,6.7977,6.822,6.8261,6.8356,6.8576,6.8606,6.8456,6.8456,6.8783,6.8817,6.885,6.907,6.897,6.8987,6.8997,6.9528,6.9533,6.9537,0,0,0,0,0,0,6.7722,6.7771,6.8201,6.8018,6.8075,6.8233,6.8339,6.8364,6.844,6.8612,6.8641,6.8504,6.8782,6.8826,6.9016,6.9083,6.8995,6.901,6.9523,6.9529,6.9535,6.9509,0,0,0,0,0,0,6.7706,6.7766,6.7832,6.8019,6.8084,6.8358,6.8343,6.8373,6.8469,6.8472,6.8665,6.8694,6.8783,6.8989,6.9033,6.9105,6.9024,6.9518,6.9526,6.9533,6.9504,6.9513,6.9521,0,0,0,0,0,6.7685,6.7812,6.7834,6.7884,6.8169,6.8361,6.8399,6.8495,6.8474,6.8543,6.8653,6.8688,6.9068,6.9008,6.9058,6.9137,6.9514,6.9524,6.9533,6.9501,6.9511,6.9521,0,0,0,0,0,0,6.7632,6.7839,6.7865,6.8056,6.819,6.8375,6.8465,6.8503,6.8649,6.8646,6.8763,6.8806,6.8989,6.9082,6.9011,6.9318,6.9291,6.9311,6.925,6.9262,6.927,6.9244,6.9038,0,0,0,0,0,6.7642,6.7778,6.7953,6.8105,6.817,6.8305,6.8393,6.8455,6.86,6.8658,6.8783,6.8925,6.9076,6.9174,6.9323,6.9518,6.9563,6.9597,6.9604,6.961,6.9627,6.9739,6.9757,6.9568,6.9568,6.9567,0,0,6.7665,6.7795,6.7875,6.8097,6.8208,6.835,6.8353,6.8502,6.861,6.8682,6.8869,6.8965,6.9132,6.9325,6.9417,6.9408,6.9689,6.9622,6.9626,6.9639,6.975,6.9768,6.9784,6.9574,6.9573,6.9572,0,0,6.778,6.789,6.803,6.8141,6.8308,6.8397,6.843,6.8609,6.8675,6.8863,6.8921,6.9052,6.931,6.9427,6.952,6.9678,6.9717,6.9724,6.9768,6.9876,6.989,6.9904,6.9963,6.9982,6.9739,6.9739,6.9739,0,6.7789,6.8001,6.8097,6.8244,6.8342,6.841,6.8554,6.8658,6.8866,6.8933,6.892,6.9246,6.9363,6.9585,6.9623,6.9696,6.974,6.9703,6.988,6.9895,6.9909,6.9967,6.9988,6.9739,6.9739,6.9739,6.9739,0,6.8005,6.8152,6.8245,6.8441,6.8549,6.8693,6.8814,6.8912,6.8965,6.9056,6.9249,6.9391,6.957,6.9627,6.9682,6.9859,6.9849,6.9856,6.9833,6.9925,6.9981,7.0004,6.9739,6.9739,6.9739,6.9739,0,0,6.8097,6.8343,6.8376,6.8467,6.8656,6.8773,6.8922,6.9094,6.9177,6.9318,6.9448,6.9664,6.9673,6.9778,6.9846,6.994,7.006,6.9937,6.9943,6.9957,7.0266,7.026,7.0284,7.0085,7.009,7.0093,7.0253,0,6.8237,6.8501,6.8592,6.8813,6.8951,6.9018,6.9148,6.928,6.9369,6.9502,6.9602,6.9754,6.9752,6.9817,6.9913,7.0024,7.0124,7.0014,7.0211,7.0216,7.0168,7.0313,7.0308,7.0451,7.0275,7.0279,7.0282,0,6.8435,6.8576,6.8809,6.8982,6.9043,6.9158,6.9324,6.9449,6.9601,6.966,6.9776,6.9838,6.9999,6.9964,7.019,7.0113,7.0199,7.0266,7.0274,7.0298,7.0256,7.0343,7.0499,7.0521,7.0317,7.0314,7.0311,0,6.8481,6.873,6.8902,6.8977,6.9182,6.9261,6.9351,6.9499,6.9597,6.9744,6.9809,6.9973,7.0063,7.019,7.0295,7.0259,7.0513,7.0486,7.0569,7.0566,7.0621,7.0616,7.0795,7.0672,7.0672,7.0672,7.0671,0,6.8629,6.877,6.8925,6.9031,6.9192,6.9296,6.9453,6.9547,6.9678,6.9806,6.9875,6.9994,7.0124,7.0262,7.0345,7.0521,7.0561,7.0616,7.0637,7.0611,7.0604,7.067,7.0664,7.0677,7.0676,7.0675,7.0674,0,6.8708,6.8818,6.901,6.9187,6.9235,6.9346,6.95,6.9607,6.9698,6.986,6.9904,7.0049,7.0214,7.033,7.0544,7.06,7.079,7.081,7.0738,7.0749,7.0826,7.0818,7.1055,7.1093,7.0942,7.0943,7.0945,0,6.8796,6.8905,6.9094,6.9183,6.9271,6.9414,6.9514,6.9621,6.9723,6.9904,6.999,7.0159,7.03,7.0562,7.0689,7.0853,7.0878,7.095,7.0903,7.0874,7.0882,7.0875,7.0887,7.0957,7.0958,7.0959,7.096,0,6.8941,6.8989,6.9129,6.9288,6.9404,6.9535,6.9667,6.9737,6.9868,6.9979,7.0147,7.0256,7.0472,7.0641,7.0817,7.0914,7.0961,7.0973,7.1002,7.0977,7.0932,7.096,7.0759,7.0968,7.0967,7.0966,7.0966,7.0966,6.9029,6.913,6.9278,6.9431,6.9541,6.9663,6.9772,6.9877,7.0017,7.02,7.0255,7.043,7.0582,7.0822,7.0921,7.1062,7.1058,7.1099,7.111,7.1118,7.1118,7.0907,7.1095,7.1095,7.1094,7.1094,7.1094,0,6.9179,6.9277,6.9417,6.9598,6.972,6.9748,6.9896,6.9997,7.0149,7.0284,7.0421,7.0615,7.0778,7.0917,7.1087,7.1174,7.1199,7.1215,7.1211,7.1233,7.1111,7.107,7.1191,7.1191,7.1191,7.1191,7.1191,7.1191,6.9272,6.9444,6.951,6.9738,6.9837,7.0006,7.0088,7.0202,7.0311,7.0523,7.0658,7.0746,7.0884,7.1065,7.1217,7.1254,7.1315,7.1326,7.1368,7.1252,7.1241,7.1231,7.1193,7.1337,7.1338,7.1479,7.148,7.1481]}]]